TimeCST,TemperatureF,Dew PointF,Humidity,Sea Level PressureIn,VisibilityMPH,Wind Direction,Wind SpeedMPH,Gust SpeedMPH,PrecipitationIn,Events,Conditions,WindDirDegrees,DateUTC
12:35 AM,46.4,44.6,93,30.20,2.5,East,5.8,-,0.04,,Overcast,100,2013-01-09 06:35:00
12:55 AM,48.2,44.6,87,30.20,5.0,ESE,4.6,-,0.04,,Overcast,110,2013-01-09 06:55:00
1:35 AM,48.2,44.6,87,30.21,2.5,Calm,Calm,-,N/A,,Overcast,0,2013-01-09 07:35:00
1:55 AM,48.2,44.6,87,30.21,2.5,ESE,4.6,-,0.01,,Overcast,110,2013-01-09 07:55:00
2:15 AM,48.2,44.6,87,30.22,2.0,Calm,Calm,-,0.01,,Overcast,0,2013-01-09 08:15:00
2:35 AM,48.2,46.4,93,30.21,2.5,Calm,Calm,-,0.01,,Mostly Cloudy,0,2013-01-09 08:35:00
2:55 AM,48.2,46.4,93,30.21,4.0,East,3.5,-,0.01,,Overcast,90,2013-01-09 08:55:00
3:15 AM,48.2,44.6,87,30.22,4.0,ENE,3.5,-,N/A,,Overcast,70,2013-01-09 09:15:00
3:55 AM,48.2,46.4,93,30.22,2.5,NNE,3.5,-,0.01,,Overcast,30,2013-01-09 09:55:00
4:15 AM,48.2,44.6,87,30.21,2.5,NE,5.8,-,N/A,,Overcast,50,2013-01-09 10:15:00
4:55 AM,46.4,44.6,93,30.23,3.0,North,5.8,-,N/A,,Overcast,10,2013-01-09 10:55:00
5:35 AM,48.2,44.6,87,30.24,3.0,NE,9.2,-,N/A,,Overcast,50,2013-01-09 11:35:00
5:55 AM,48.2,46.4,93,30.24,2.5,NE,9.2,-,N/A,,Overcast,50,2013-01-09 11:55:00
6:15 AM,48.2,46.4,93,30.25,1.2,NE,8.1,-,N/A,,Overcast,50,2013-01-09 12:15:00
6:35 AM,48.2,46.4,93,30.26,5.0,East,9.2,-,N/A,,Overcast,80,2013-01-09 12:35:00
6:55 AM,48.2,46.4,93,30.27,10.0,ENE,8.1,-,N/A,,Overcast,60,2013-01-09 12:55:00
7:15 AM,48.2,44.6,87,30.27,10.0,ENE,9.2,-,N/A,,Overcast,60,2013-01-09 13:15:00
7:35 AM,46.4,44.6,93,30.29,10.0,East,6.9,-,N/A,,Mostly Cloudy,80,2013-01-09 13:35:00
7:55 AM,46.4,44.6,93,30.30,10.0,East,5.8,-,N/A,,Partly Cloudy,80,2013-01-09 13:55:00
8:15 AM,46.4,44.6,93,30.31,10.0,ENE,6.9,-,N/A,,Partly Cloudy,70,2013-01-09 14:15:00
8:55 AM,46.4,42.8,87,30.32,8.0,East,8.1,-,N/A,,Partly Cloudy,100,2013-01-09 14:55:00
9:15 AM,46.4,44.6,93,30.32,9.0,East,10.4,-,N/A,,Clear,100,2013-01-09 15:15:00
9:35 AM,48.2,44.6,87,30.32,10.0,ESE,8.1,-,N/A,,Clear,110,2013-01-09 15:35:00
9:55 AM,48.2,44.6,87,30.33,10.0,East,9.2,-,N/A,,Clear,90,2013-01-09 15:55:00
10:35 AM,48.2,44.6,87,30.33,10.0,ENE,10.4,-,N/A,,Clear,70,2013-01-09 16:35:00
11:15 AM,50.0,42.8,76,30.32,10.0,ENE,11.5,16.1,N/A,,Clear,60,2013-01-09 17:15:00
12:15 PM,51.8,42.8,71,30.31,10.0,ENE,11.5,17.3,N/A,,Clear,70,2013-01-09 18:15:00
12:55 PM,51.8,42.8,71,30.29,10.0,ENE,10.4,-,N/A,,Clear,70,2013-01-09 18:55:00
1:15 PM,51.8,42.8,71,30.28,10.0,ENE,12.7,16.1,N/A,,Clear,70,2013-01-09 19:15:00
1:35 PM,51.8,42.8,71,30.28,10.0,ENE,11.5,-,N/A,,Clear,70,2013-01-09 19:35:00
2:15 PM,53.6,42.8,67,30.28,10.0,ENE,11.5,-,N/A,,Clear,70,2013-01-09 20:15:00
2:35 PM,53.6,42.8,67,30.28,10.0,ENE,9.2,-,N/A,,Clear,70,2013-01-09 20:35:00
2:55 PM,53.6,41.0,62,30.27,10.0,ENE,9.2,-,N/A,,Clear,60,2013-01-09 20:55:00
3:15 PM,53.6,39.2,58,30.27,10.0,ENE,8.1,-,N/A,,Clear,70,2013-01-09 21:15:00
3:35 PM,53.6,39.2,58,30.27,10.0,ENE,10.4,17.3,N/A,,Clear,70,2013-01-09 21:35:00
3:55 PM,53.6,37.4,54,30.27,10.0,ENE,11.5,17.3,N/A,,Clear,60,2013-01-09 21:55:00
4:55 PM,51.8,37.4,58,30.28,10.0,ENE,13.8,18.4,N/A,,Clear,70,2013-01-09 22:55:00
5:15 PM,51.8,37.4,58,30.28,10.0,East,10.4,17.3,N/A,,Clear,90,2013-01-09 23:15:00
5:35 PM,51.8,37.4,58,30.27,10.0,ENE,11.5,16.1,N/A,,Clear,70,2013-01-09 23:35:00
5:55 PM,51.8,37.4,58,30.27,10.0,East,10.4,-,N/A,,Clear,80,2013-01-09 23:55:00
6:15 PM,51.8,37.4,58,30.27,10.0,East,9.2,-,N/A,,Mostly Cloudy,80,2013-01-10 00:15:00
6:35 PM,51.8,37.4,58,30.27,10.0,East,12.7,-,N/A,,Overcast,80,2013-01-10 00:35:00
6:55 PM,51.8,37.4,58,30.27,10.0,East,10.4,-,N/A,,Overcast,80,2013-01-10 00:55:00
7:35 PM,51.8,35.6,54,30.27,10.0,East,15.0,19.6,N/A,,Overcast,80,2013-01-10 01:35:00
8:15 PM,51.8,35.6,54,30.27,10.0,East,13.8,19.6,N/A,,Overcast,80,2013-01-10 02:15:00
8:35 PM,51.8,35.6,54,30.27,10.0,East,12.7,21.9,N/A,,Overcast,80,2013-01-10 02:35:00
8:55 PM,51.8,37.4,58,30.26,10.0,East,15.0,21.9,N/A,,Overcast,90,2013-01-10 02:55:00
9:15 PM,51.8,37.4,58,30.25,10.0,East,15.0,23.0,N/A,,Overcast,80,2013-01-10 03:15:00
9:35 PM,51.8,37.4,58,30.24,10.0,East,17.3,27.6,N/A,,Overcast,80,2013-01-10 03:35:00
9:55 PM,51.8,37.4,58,30.23,10.0,East,16.1,31.1,N/A,,Overcast,90,2013-01-10 03:55:00
10:35 PM,51.8,35.6,54,30.21,10.0,East,24.2,35.7,N/A,,Mostly Cloudy,90,2013-01-10 04:35:00
10:55 PM,51.8,37.4,58,30.21,10.0,East,16.1,32.2,N/A,,Overcast,90,2013-01-10 04:55:00
11:15 PM,51.8,35.6,54,30.21,10.0,East,21.9,29.9,N/A,,Overcast,90,2013-01-10 05:15:00
11:55 PM,50.0,37.4,62,30.20,10.0,East,19.6,25.3,N/A,,Mostly Cloudy,100,2013-01-10 05:55:00